Eureka, NV

3:09 AM PDT on July 28, 2017 (GMT -0700)
Eureka

Weather History for KP68 - December, 2013

Change the Weather History Date:

Monday, December 23, 2013

  Actual Average Record
Temperature  
Mean Temperature 31 °F 23 °F  
Max Temperature 43 °F 37 °F 52 °F (1989)
Min Temperature 19 °F 10 °F -31 °F (1990)
Degree Days  
Heating Degree Days 34 42  
Month to date heating degree days 1031 913  
Since 1 July heating degree days 2642 2672  
Cooling Degree Days 0 0  
Month to date cooling degree days 0 0  
Year to date cooling degree days 585 288  
Moisture  
Dew Point 25 °F    
Average Humidity 81    
Maximum Humidity 100    
Minimum Humidity 62    
Precipitation  
Precipitation 0.00 in 0.02 in 0.14 in (1968)
Month to date precipitation 1.07 0.45  
Year to date precipitation 8.54 8.84  
Sea Level Pressure  
Sea Level Pressure 30.45 in    
Wind  
Wind Speed 6 mph (SSW)    
Max Wind Speed 14 mph    
Max Gust Speed 16 mph    
T = Trace of Precipitation, MM = Missing Value Source: NWS Daily Summary

Daily Weather History Graph

Daily Weather History Graph

Search for Another Location

Airport or City:

Trip Planner

Search our weather history database for the weather conditions in past years. The results will help you decide how hot, cold, wet, or windy it might be!

Date:

Astronomy

Dec. 23, 2013 Rise Set
Actual Time 7:01 AM PST 4:24 PM PST
Civil Twilight 6:31 AM PST 4:54 PM PST
Nautical Twilight 5:57 AM PST 5:28 PM PST
Astronomical Twilight 5:24 AM PST 6:01 PM PST
Moon 10:37 PM PST (12/23) 10:30 AM PST (12/23)
Length of Visible Light 10h 23m
Length of Day
9h 22m
Waning Gibbous, 67% of the Moon is Illuminated
Dec 23
Waning Gibbous
Dec 25
Last Quarter
Jan 1
New
Jan 7
First Quarter
Jan 15
Full

Hourly Weather History & Observations

Time (PST) Temp. Windchill Dew Point Humidity Pressure Visibility Wind Dir Wind Speed Gust Speed Precip Events Conditions
12:53 AM 26.1 °F 20.5 °F 23.0 °F 88% 30.40 in - South 4.6 mph - N/A   Unknown
1:53 AM 23.0 °F 18.4 °F 19.9 °F 88% 30.42 in - South 3.5 mph - N/A   Unknown
2:53 AM 25.0 °F 17.1 °F 21.9 °F 88% 30.43 in - SSW 6.9 mph - N/A   Unknown
3:53 AM 21.9 °F 13.4 °F 19.0 °F 89% 30.45 in - South 6.9 mph - N/A   Unknown
4:53 AM 21.0 °F 12.4 °F 18.0 °F 88% 30.47 in - SSW 6.9 mph - N/A   Unknown
5:53 AM 21.0 °F 11.4 °F 19.0 °F 92% 30.50 in - SSW 8.1 mph - N/A   Unknown
6:53 AM 21.9 °F 12.5 °F 19.0 °F 89% 30.51 in - South 8.1 mph - N/A   Unknown
7:53 AM 21.9 °F 14.5 °F 21.0 °F 96% 30.51 in - SSW 5.8 mph - N/A   Unknown
8:53 AM 27.0 °F 19.5 °F 24.1 °F 89% 30.50 in - SSW 6.9 mph - N/A   Unknown
9:53 AM 30.9 °F 23.5 °F 26.1 °F 82% 30.50 in - SW 8.1 mph - N/A   Unknown
10:53 AM 36.0 °F 30.3 °F 28.9 °F 76% 30.47 in - SW 6.9 mph - N/A   Unknown
11:53 AM 37.9 °F 31.5 °F 28.9 °F 70% 30.44 in - SSW 9.2 mph - N/A   Unknown
12:53 PM 39.9 °F 35.8 °F 30.0 °F 68% 30.44 in - SW 5.8 mph - N/A   Unknown
1:53 PM 42.1 °F 39.2 °F 30.0 °F 62% 30.42 in - WSW 4.6 mph - N/A   Unknown
2:53 PM 41.0 °F - 30.0 °F 65% 30.42 in - Calm Calm - N/A   Unknown
3:53 PM 39.9 °F 36.7 °F 28.9 °F 65% 30.43 in - South 4.6 mph - N/A   Unknown
4:53 PM 35.1 °F - 28.0 °F 76% 30.48 in - Calm Calm - N/A   Unknown
5:53 PM 30.9 °F 24.3 °F 28.0 °F 89% 30.49 in - South 6.9 mph - N/A   Unknown
6:53 PM 33.1 °F 26.9 °F 28.9 °F 85% 30.46 in - South 6.9 mph - N/A   Unknown
7:53 PM 34.0 °F 27.2 °F 28.9 °F 82% 30.46 in - South 8.1 mph - N/A   Unknown
8:53 PM 34.0 °F 31.0 °F 27.0 °F 75% 30.43 in - Variable 3.5 mph - N/A   Unknown
9:53 PM 32.0 °F 23.6 °F 26.1 °F 79% 30.42 in - SSW 10.4 mph - N/A   Unknown
10:53 PM 30.9 °F 25.2 °F 26.1 °F 82% 30.41 in - SW 5.8 mph - N/A   Unknown
11:53 PM 33.1 °F 26.1 °F 26.1 °F 75% 30.39 in - South 8.1 mph - N/A   Unknown